Weather in Druzhba

Ukraine / Sumi District     52°02′28″N   33°56′37″E
temp.,
°C
wind,
m/s
gust,
m/s
humid.,
%
clouds,
%
prec.,
mm/h
press.,
hPa
HPBL,
m
15 may, sat
sat1500:00+13sse22890 0.0 100818
03:00+11s36945 0.0 1008104
06:00+11s37935 0.0 1009147
09:00+16s58780 0.0 1009593
12:00+18ssw797033 1.3 10101359
15:00+19sw79656 2.4 10101554
18:00+18sw577243 0.6 1010904
21:00+13ssw35905 0.8 101280
16 may, sun
sun1600:00+12s3490100 0.0 101268
03:00+11ssw359410 0.0 101373
06:00+10ssw36935 0.0 1014155
09:00+16sw34760 0.0 1014512
12:00+19ssw34620 0.0 10141139
15:00+21ssw4556100 0.0 10131536
18:00+21s2366100 0.0 1012964
21:00+16ene227789 0.0 101213
17 may, mon
mon1700:00+14ene46835 0.0 101281
03:00+13ene41085100 0.0 1010158
06:00+14ene5119060 0.6 1009252
09:00+18ene61180100 0.6 1007427
12:00+23ese71161100 0.0 1005831
15:00+23se7106498 0.0 10041198
18:00+21se5107367 0.0 1003810
21:00+18ese7169298 2.7 1002468
18 may, tue
tue1800:00+17se61594100 0.1 1001672
03:00+14s81593100 0.1 1002683
06:00+13ssw71292100 0.0 1004680
09:00+16sw698276 0.1 1006805
12:00+18ssw7974100 0.4 10071214
15:00+19s5569100 2.4 10061149
18:00+18s337940 3.1 1006516
21:00+14sse239344 5.7 100629
19 may, wed
wed1900:00+13ssw3598100 3.8 1005142
03:00+12wnw71298100 10.7 1005587
06:00+12wnw51097100 6.4 1006516
09:00+13w61092100 7.3 1007758
12:00+16w8107034 0.8 10081420
15:00+18w79582 0.9 10091841
18:00+17wsw466732 0.1 10101038
21:00+13wsw2378100 0.1 101127